• în România
  • Lista ţărilor
  • Pe 7 zile
  • Temperatura apei
  • Hartă satelitară
  • Meteo pe hartă
  • Widget-uri
  • user-avatar
    Intrare

    Meteo pe oră la Krasnyy Osetrik

    Astăzi, 17 Iulie, Marţi

    Timp Temperatura Precipitaţii Vânt Presiune Umiditate
    00:00 +21°C° 0,3 mm 3 m/s 736 mmHg 90%
    01:00 +20°C° 0 mm 3 m/s 736 mmHg 91%
    02:00 +20°C° 0 mm 3 m/s 736 mmHg 93%
    03:00 +20°C° 0 mm 3 m/s 736 mmHg 96%
    04:00 +20°C° 0,8 mm 4 m/s 736 mmHg 96%
    05:00 +20°C° 0,8 mm 5 m/s 736 mmHg 95%
    06:00 +21°C° 0,8 mm 5 m/s 735 mmHg 95%
    07:00 +22°C° 0,2 mm 6 m/s 735 mmHg 92%
    08:00 +23°C° 0,2 mm 6 m/s 735 mmHg 89%
    09:00 +24°C° 0,2 mm 6 m/s 735 mmHg 86%
    10:00 +26°C° 0,6 mm 6 m/s 735 mmHg 83%
    11:00 +27°C° 0,6 mm 6 m/s 735 mmHg 79%
    12:00 +27°C° 0,6 mm 6 m/s 735 mmHg 76%
    13:00 +27°C° 1 mm 6 m/s 734 mmHg 76%
    14:00 +27°C° 1 mm 6 m/s 734 mmHg 77%
    15:00 +27°C° 1 mm 5 m/s 734 mmHg 77%
    16:00 +27°C° 0,5 mm 5 m/s 734 mmHg 79%
    17:00 +26°C° 0,5 mm 4 m/s 734 mmHg 81%
    18:00 +26°C° 0,5 mm 3 m/s 734 mmHg 82%
    19:00 +25°C° 0,3 mm 3 m/s 734 mmHg 86%
    20:00 +24°C° 0,3 mm 3 m/s 734 mmHg 89%
    21:00 +21°C° 0,3 mm 3 m/s 734 mmHg 93%
    22:00 +21°C° 0,1 mm 3 m/s 733 mmHg 94%
    23:00 +21°C° 0,1 mm 3 m/s 733 mmHg 95%

    Mâine, 18 Iulie, Miercuri

    Timp Temperatura Precipitaţii Vânt Presiune Umiditate
    00:00 +20°C° 0,1 mm 3 m/s 733 mmHg 96%
    01:00 +20°C° 0 mm 4 m/s 733 mmHg 96%
    02:00 +20°C° 0 mm 4 m/s 733 mmHg 96%
    03:00 +19°C° 0 mm 4 m/s 733 mmHg 97%
    04:00 +20°C° 0 mm 5 m/s 732 mmHg 96%
    05:00 +20°C° 0 mm 5 m/s 732 mmHg 96%
    06:00 +20°C° 0 mm 6 m/s 732 mmHg 95%
    07:00 +20°C° 0,1 mm 6 m/s 732 mmHg 95%
    08:00 +20°C° 0,1 mm 6 m/s 732 mmHg 94%
    09:00 +20°C° 0,1 mm 6 m/s 732 mmHg 94%
    10:00 +21°C° 0,3 mm 6 m/s 732 mmHg 91%
    11:00 +22°C° 0,3 mm 6 m/s 731 mmHg 88%
    12:00 +23°C° 0,3 mm 6 m/s 731 mmHg 86%
    13:00 +23°C° 0,9 mm 6 m/s 731 mmHg 85%
    14:00 +23°C° 0,9 mm 6 m/s 731 mmHg 83%
    15:00 +24°C° 0,9 mm 6 m/s 731 mmHg 82%
    16:00 +23°C° 0,8 mm 5 m/s 731 mmHg 83%
    17:00 +23°C° 0,8 mm 5 m/s 731 mmHg 84%
    18:00 +23°C° 0,8 mm 5 m/s 731 mmHg 85%
    19:00 +22°C° 0,3 mm 5 m/s 731 mmHg 88%
    20:00 +21°C° 0,3 mm 4 m/s 731 mmHg 91%
    21:00 +20°C° 0,3 mm 4 m/s 731 mmHg 94%
    22:00 +20°C° 0 mm 4 m/s 731 mmHg 95%
    23:00 +19°C° 0 mm 4 m/s 731 mmHg 96%

    Poimâine, 19 Iulie, Joi

    Timp Temperatura Precipitaţii Vânt Presiune Umiditate
    00:00 +19°C° 0 mm 4 m/s 731 mmHg 97%
    01:00 +19°C° 0,1 mm 4 m/s 731 mmHg 97%
    02:00 +19°C° 0,1 mm 4 m/s 731 mmHg 97%
    03:00 +19°C° 0,1 mm 3 m/s 731 mmHg 97%
    04:00 +19°C° 0,2 mm 3 m/s 731 mmHg 97%
    05:00 +19°C° 0,2 mm 3 m/s 731 mmHg 97%
    06:00 +19°C° 0,2 mm 2 m/s 732 mmHg 97%
    07:00 +19°C° 0,2 mm 2 m/s 732 mmHg 95%
    08:00 +20°C° 0,2 mm 2 m/s 732 mmHg 94%
    09:00 +20°C° 0,2 mm 2 m/s 732 mmHg 92%
    10:00 +21°C° 0,3 mm 2 m/s 732 mmHg 89%
    11:00 +23°C° 0,3 mm 2 m/s 733 mmHg 85%
    12:00 +24°C° 0,3 mm 2 m/s 733 mmHg 82%
    13:00 +25°C° 1,1 mm 2 m/s 733 mmHg 80%
    14:00 +25°C° 1,1 mm 2 m/s 733 mmHg 77%
    15:00 +26°C° 1,1 mm 2 m/s 733 mmHg 75%
    16:00 +26°C° 0,6 mm 2 m/s 733 mmHg 76%
    17:00 +26°C° 0,6 mm 2 m/s 733 mmHg 78%
    18:00 +26°C° 0,6 mm 2 m/s 733 mmHg 79%
    19:00 +25°C° 0,4 mm 3 m/s 733 mmHg 83%
    20:00 +22°C° 0,4 mm 3 m/s 734 mmHg 88%
    21:00 +21°C° 0,4 mm 3 m/s 734 mmHg 92%
    22:00 +21°C° 0 mm 3 m/s 734 mmHg 93%
    23:00 +20°C° 0 mm 3 m/s 734 mmHg 94%

    20 Iulie, Vineri

    Timp Temperatura Precipitaţii Vânt Presiune Umiditate
    00:00 +20°C° 0 mm 3 m/s 734 mmHg 95%
    01:00 +20°C° 0 mm 3 m/s 734 mmHg 95%
    02:00 +19°C° 0 mm 3 m/s 734 mmHg 96%
    03:00 +19°C° 0 mm 3 m/s 735 mmHg 96%
    04:00 +19°C° 0 mm 3 m/s 735 mmHg 95%
    05:00 +20°C° 0 mm 3 m/s 735 mmHg 95%
    06:00 +20°C° 0 mm 3 m/s 735 mmHg 94%
    07:00 +21°C° 0 mm 3 m/s 736 mmHg 90%
    08:00 +24°C° 0 mm 3 m/s 736 mmHg 86%
    09:00 +25°C° 0 mm 4 m/s 736 mmHg 82%
    10:00 +26°C° 0,6 mm 4 m/s 736 mmHg 78%
    11:00 +27°C° 0,6 mm 4 m/s 736 mmHg 74%
    12:00 +28°C° 0,6 mm 4 m/s 736 mmHg 69%
    13:00 +28°C° 0,5 mm 4 m/s 736 mmHg 69%
    14:00 +28°C° 0,5 mm 4 m/s 736 mmHg 69%
    15:00 +29°C° 0,5 mm 3 m/s 736 mmHg 68%
    16:00 +28°C° 0,3 mm 3 m/s 736 mmHg 71%
    17:00 +28°C° 0,3 mm 3 m/s 736 mmHg 74%
    18:00 +28°C° 0,3 mm 3 m/s 737 mmHg 77%
    19:00 +26°C° 0,1 mm 3 m/s 737 mmHg 81%
    20:00 +25°C° 0,1 mm 2 m/s 737 mmHg 85%
    21:00 +23°C° 0,1 mm 2 m/s 737 mmHg 89%
    22:00 +23°C° 0 mm 2 m/s 737 mmHg 90%
    23:00 +21°C° 0 mm 2 m/s 737 mmHg 91%

    21 Iulie, Sâmbătă

    Timp Temperatura Precipitaţii Vânt Presiune Umiditate
    00:00 +22°C° 0 mm 1 m/s 737 mmHg 92%
    01:00 +21°C° 0 mm 2 m/s 737 mmHg 93%
    02:00 +20°C° 0 mm 2 m/s 737 mmHg 94%
    03:00 +20°C° 0 mm 2 m/s 738 mmHg 94%
    04:00 +20°C° 0 mm 2 m/s 738 mmHg 94%
    05:00 +21°C° 0 mm 2 m/s 738 mmHg 94%
    06:00 +21°C° 0 mm 2 m/s 738 mmHg 93%
    07:00 +23°C° 0 mm 2 m/s 738 mmHg 88%
    08:00 +25°C° 0 mm 2 m/s 738 mmHg 82%
    09:00 +26°C° 0 mm 2 m/s 738 mmHg 77%
    10:00 +27°C° 0,8 mm 2 m/s 738 mmHg 74%
    11:00 +27°C° 0,8 mm 2 m/s 738 mmHg 72%
    12:00 +28°C° 0,8 mm 3 m/s 738 mmHg 69%
    13:00 +28°C° 0,7 mm 3 m/s 738 mmHg 70%
    14:00 +28°C° 0,7 mm 3 m/s 738 mmHg 70%
    15:00 +28°C° 0,7 mm 3 m/s 737 mmHg 71%
    16:00 +27°C° 1,2 mm 3 m/s 737 mmHg 74%
    17:00 +27°C° 1,2 mm 3 m/s 737 mmHg 78%
    18:00 +26°C° 1,2 mm 3 m/s 737 mmHg 81%
    19:00 +25°C° 0,5 mm 3 m/s 737 mmHg 83%
    20:00 +24°C° 0,5 mm 3 m/s 737 mmHg 86%
    21:00 +23°C° 0,5 mm 2 m/s 737 mmHg 89%
    22:00 +23°C° 0 mm 2 m/s 737 mmHg 90%
    23:00 +23°C° 0 mm 2 m/s 737 mmHg 90%

    22 Iulie, Duminică

    Timp Temperatura Precipitaţii Vânt Presiune Umiditate
    00:00 +21°C° 0 mm 2 m/s 737 mmHg 91%
    01:00 +21°C° 0,4 mm 2 m/s 737 mmHg 92%
    02:00 +21°C° 0,4 mm 2 m/s 737 mmHg 92%
    03:00 +20°C° 0,4 mm 2 m/s 737 mmHg 93%
    04:00 +20°C° 0 mm 2 m/s 737 mmHg 93%
    05:00 +21°C° 0 mm 2 m/s 737 mmHg 93%
    06:00 +21°C° 0 mm 3 m/s 737 mmHg 93%
    07:00 +22°C° 0,4 mm 3 m/s 737 mmHg 90%
    08:00 +24°C° 0,4 mm 3 m/s 737 mmHg 86%
    09:00 +26°C° 0,4 mm 3 m/s 737 mmHg 83%
    10:00 +27°C° 1,4 mm 4 m/s 737 mmHg 78%
    11:00 +28°C° 1,4 mm 4 m/s 737 mmHg 74%
    12:00 +29°C° 1,4 mm 4 m/s 736 mmHg 69%
    13:00 +28°C° 1,5 mm 5 m/s 736 mmHg 72%
    14:00 +28°C° 1,5 mm 5 m/s 736 mmHg 75%
    15:00 +27°C° 1,5 mm 5 m/s 736 mmHg 78%
    16:00 +27°C° 0,9 mm 5 m/s 736 mmHg 80%
    17:00 +27°C° 0,9 mm 5 m/s 736 mmHg 82%
    18:00 +27°C° 0,9 mm 4 m/s 736 mmHg 83%
    19:00 +26°C° 0,1 mm 4 m/s 736 mmHg 86%
    20:00 +25°C° 0,1 mm 4 m/s 736 mmHg 88%
    21:00 +23°C° 0,1 mm 4 m/s 736 mmHg 91%
    22:00 +22°C° 0,1 mm 3 m/s 736 mmHg 92%
    23:00 +22°C° 0,1 mm 3 m/s 736 mmHg 93%
    Arată mai mult